Weather History for Grants-Milan, NM

Change the Weather History Date:

Tuesday, July 23, 2013

  Actual Average Record
Temperature  
Mean Temperature 72 °F -  
Max Temperature 89 °F 86 °F 97 °F (1963)
Min Temperature 55 °F 54 °F 47 °F (1976)
Cooling Degree Days 7    
Growing Degree Days 22 (Base 50)    
Moisture  
Dew Point 47 °F    
Average Humidity 46    
Maximum Humidity 84    
Minimum Humidity 18    
Precipitation  
Precipitation 0.00 in - - ()
Sea Level Pressure  
Sea Level Pressure 30.23 in    
Wind  
Wind Speed 4 mph (NNW)    
Max Wind Speed 17 mph    
Max Gust Speed 24 mph    
Visibility 10 miles    
Events Thunderstorm    
Averages and records for this station are not official NWS values.
T = Trace of Precipitation, MM = Missing Value Source: NWS Daily Summary

Daily Weather History Graph

Daily Weather History Graph

Search for Another Location

Airport:

Trip Planner

Search our weather history database for the weather conditions in past years. The results will help you decide how hot, cold, wet, or windy it might be!

Date:

Astronomy

Jul. 23, 2013 Rise Set
Actual Time 6:14 AM MDT 8:21 PM MDT
Civil Twilight 5:45 AM MDT 8:50 PM MDT
Nautical Twilight 5:10 AM MDT 9:24 PM MDT
Astronomical Twilight 4:33 AM MDT 10:02 PM MDT
Moon 8:58 PM MDT (7/23) 7:21 AM MDT (7/23)
Length of Visible Light 15h 04m
Length of Day
14h 07m
Full, 99% of the Moon is Illuminated
Jul 23
Full
Jul 29
Last Quarter
Aug 6
New
Aug 14
First Quarter
Aug 20
Full

Hourly Weather History & Observations

Time (MDT) Temp. Dew Point Humidity Pressure Visibility Wind Dir Wind Speed Gust Speed Precip Events Conditions
12:15 AM 63.5 °F 52.2 °F 67% 30.24 in 10.0 mi Calm Calm - N/A   Mostly Cloudy
12:35 AM 62.6 °F 52.0 °F 68% 30.24 in 10.0 mi South 3.5 mph - N/A   Scattered Clouds
12:55 AM 62.2 °F 51.8 °F 69% 30.24 in 10.0 mi Calm Calm - N/A   Clear
1:15 AM 63.7 °F 52.3 °F 67% 30.24 in 10.0 mi Calm Calm - N/A   Clear
1:35 AM 62.2 °F 52.0 °F 69% 30.24 in 10.0 mi SW 3.5 mph - N/A   Clear
1:55 AM 63.3 °F 51.1 °F 64% 30.24 in 10.0 mi Calm Calm - N/A   Clear
2:15 AM 62.1 °F 52.2 °F 70% 30.24 in 10.0 mi Calm Calm - N/A   Clear
2:35 AM 63.0 °F 51.6 °F 66% 30.24 in 10.0 mi SSE 3.5 mph - N/A   Clear
2:55 AM 62.1 °F 52.3 °F 70% 30.24 in 10.0 mi Calm Calm - N/A   Clear
3:15 AM 59.7 °F 52.9 °F 78% 30.24 in 10.0 mi Calm Calm - N/A   Clear
3:35 AM 62.1 °F 52.7 °F 71% 30.24 in 10.0 mi Calm Calm - N/A   Clear
3:55 AM 60.8 °F 52.0 °F 73% 30.23 in 10.0 mi North 3.5 mph - N/A   Clear
4:15 AM 60.1 °F 51.3 °F 73% 30.23 in 10.0 mi NW 3.5 mph - N/A   Clear
4:35 AM 59.5 °F 51.1 °F 74% 30.23 in 10.0 mi WNW 4.6 mph - N/A   Clear
4:55 AM 58.8 °F 51.1 °F 75% 30.23 in 10.0 mi Calm Calm - N/A   Clear
5:15 AM 59.2 °F 50.9 °F 74% 30.23 in 10.0 mi Calm Calm - N/A   Clear
5:35 AM 56.3 °F 50.5 °F 81% 30.23 in 10.0 mi Calm Calm - N/A   Clear
5:55 AM 57.0 °F 49.6 °F 76% 30.23 in 10.0 mi Calm Calm - N/A   Clear
6:15 AM 56.5 °F 50.7 °F 81% 30.24 in 10.0 mi Calm Calm - N/A   Clear
6:35 AM 56.1 °F 50.5 °F 82% 30.24 in 10.0 mi Calm Calm - N/A   Clear
6:55 AM 55.8 °F 50.9 °F 84% 30.25 in 10.0 mi Calm Calm - N/A   Clear
7:15 AM 58.6 °F 53.1 °F 82% 30.26 in 10.0 mi Calm Calm - N/A   Clear
7:35 AM 58.8 °F 52.5 °F 80% 30.26 in 10.0 mi Calm Calm - N/A   Clear
7:55 AM 61.5 °F 54.0 °F 76% 30.27 in 10.0 mi Calm Calm - N/A   Clear
8:15 AM 62.4 °F 54.5 °F 75% 30.28 in 10.0 mi Calm Calm - N/A   Clear
8:35 AM 64.4 °F 53.2 °F 67% 30.28 in 10.0 mi Calm Calm - N/A   Clear
8:55 AM 66.0 °F 53.2 °F 63% 30.28 in 10.0 mi Calm Calm - N/A   Clear
9:15 AM 66.9 °F 52.9 °F 61% 30.28 in 10.0 mi Calm Calm - N/A   Clear
9:35 AM 68.9 °F 52.2 °F 55% 30.28 in 10.0 mi Calm Calm - N/A   Clear
9:55 AM 74.3 °F 50.4 °F 43% 30.26 in 10.0 mi North 5.8 mph - N/A   Clear
10:15 AM 76.1 °F 47.7 °F 37% 30.26 in 10.0 mi NW 8.1 mph - N/A   Clear
10:35 AM 77.4 °F 46.6 °F 34% 30.26 in 10.0 mi NW 10.4 mph - N/A   Clear
10:55 AM 78.1 °F 47.1 °F 33% 30.26 in 10.0 mi North 8.1 mph 16.1 mph N/A   Clear
11:15 AM 80.4 °F 45.9 °F 30% 30.26 in 10.0 mi North 9.2 mph 12.7 mph N/A   Clear
11:35 AM 80.8 °F 46.2 °F 30% 30.26 in 10.0 mi NNW 8.1 mph - N/A   Clear
11:55 AM 81.3 °F 45.1 °F 28% 30.25 in 10.0 mi North 6.9 mph - N/A   Clear
12:15 PM 83.1 °F 45.3 °F 26% 30.24 in 10.0 mi North 5.8 mph - N/A   Clear
12:35 PM 84.0 °F 45.1 °F 26% 30.24 in 10.0 mi North 6.9 mph - N/A   Clear
12:55 PM 84.6 °F 44.2 °F 24% 30.23 in 10.0 mi NNW 6.9 mph - N/A   Clear
1:15 PM 85.8 °F 44.2 °F 23% 30.23 in 10.0 mi North 4.6 mph - N/A   Clear
1:35 PM 86.4 °F 43.5 °F 22% 30.22 in 10.0 mi NNW 5.8 mph - N/A   Clear
2:15 PM 87.6 °F 43.5 °F 21% 30.20 in 10.0 mi NNW 12.7 mph - N/A   Scattered Clouds
2:35 PM 86.7 °F 43.5 °F 22% 30.20 in 10.0 mi NNE 6.9 mph - N/A   Scattered Clouds
2:55 PM 87.1 °F 42.6 °F 21% 30.19 in 10.0 mi North 4.6 mph - N/A   Mostly Cloudy
3:15 PM 88.2 °F 42.8 °F 20% 30.18 in 10.0 mi NNE 9.2 mph - N/A   Mostly Cloudy
3:35 PM 89.4 °F 41.4 °F 19% 30.18 in 10.0 mi North 12.7 mph - N/A   Clear
3:55 PM 88.7 °F 42.6 °F 20% 30.17 in 10.0 mi NNE 10.4 mph 16.1 mph N/A   Clear
4:15 PM 88.9 °F 41.9 °F 19% 30.16 in 10.0 mi North 11.5 mph - N/A Thunderstorm Clear
4:35 PM 89.6 °F 40.1 °F 18% 30.15 in 10.0 mi NNW 15.0 mph 19.6 mph N/A   Clear
4:55 PM 88.5 °F 40.6 °F 19% 30.15 in 10.0 mi NNW 11.5 mph 21.9 mph N/A   Scattered Clouds
5:15 PM 88.9 °F 40.1 °F 18% 30.15 in 10.0 mi NNW 13.8 mph 19.6 mph N/A   Scattered Clouds
5:35 PM 85.8 °F 40.6 °F 20% 30.15 in 10.0 mi NW 15.0 mph 18.4 mph N/A   Scattered Clouds
5:55 PM 84.4 °F 39.9 °F 21% 30.15 in 10.0 mi NW 11.5 mph - N/A   Mostly Cloudy
6:15 PM 84.4 °F 39.2 °F 20% 30.15 in 10.0 mi NW 8.1 mph - N/A   Overcast
6:35 PM 82.6 °F 42.8 °F 25% 30.16 in 10.0 mi NNE 16.1 mph 24.2 mph N/A   Mostly Cloudy
6:55 PM 81.5 °F 41.5 °F 24% 30.16 in 10.0 mi NNE 15.0 mph 23.0 mph N/A   Scattered Clouds
7:15 PM 79.9 °F 43.7 °F 28% 30.17 in 10.0 mi NNE 15.0 mph 24.2 mph N/A   Scattered Clouds
7:35 PM 79.7 °F 43.2 °F 27% 30.17 in 10.0 mi NNE 12.7 mph 18.4 mph N/A   Scattered Clouds
7:55 PM 79.0 °F 43.7 °F 29% 30.18 in 10.0 mi North 9.2 mph 18.4 mph N/A   Clear
8:15 PM 78.1 °F 44.2 °F 30% 30.19 in 10.0 mi North 11.5 mph - N/A   Mostly Cloudy
8:35 PM 77.5 °F 44.8 °F 31% 30.20 in 10.0 mi North 13.8 mph - N/A   Overcast
8:55 PM 76.3 °F 44.6 °F 32% 30.20 in 10.0 mi NNW 16.1 mph - N/A   Overcast
9:15 PM 74.7 °F 45.9 °F 36% 30.21 in 10.0 mi NW 17.3 mph 20.7 mph N/A   Overcast
9:35 PM 73.4 °F 47.3 °F 39% 30.22 in 10.0 mi NW 16.1 mph 23.0 mph N/A   Scattered Clouds
9:55 PM 73.4 °F 46.6 °F 38% 30.24 in 10.0 mi NW 11.5 mph 19.6 mph N/A   Mostly Cloudy
10:15 PM 72.5 °F 46.6 °F 40% 30.26 in 10.0 mi NW 10.4 mph - N/A   Scattered Clouds
10:35 PM 72.5 °F 46.8 °F 40% 30.26 in 10.0 mi North 6.9 mph - N/A   Scattered Clouds
10:55 PM 72.1 °F 47.3 °F 41% 30.27 in 10.0 mi North 8.1 mph - N/A   Overcast
11:15 PM 72.1 °F 47.3 °F 41% 30.28 in 10.0 mi North 8.1 mph - N/A   Overcast
11:35 PM 71.8 °F 47.3 °F 42% 30.28 in 10.0 mi North 5.8 mph - N/A   Mostly Cloudy
11:55 PM 69.3 °F 47.3 °F 45% 30.28 in 10.0 mi NW 6.9 mph - N/A   Clear